Flag for U.S.A. Weather past 2 weeks in Concord, California, U.S.A.

Now
55 °F

Clear.


Feels Like: 55 °F
Forecast: 55 / 75 °F
Wind: No wind

Location: Buchanan Field

Current Time: Mar 27, 2015 at 8:41:57 AM

Latest Report: Mar 27, 2015 at 7:53 AM


Visibility: 10 mi

Pressure: 30.07 "Hg

Humidity: 83%

Dew point: 50 °F

Location of ConcordLocation

Historic Weather in Concord — Graph

°F

Concord temperature yesterday

Maximum temperature yesterday: 81 °F (at 3:53 PM)
Minimum temperature yesterday: 51 °F (at 5:53 AM)
Average temperature yesterday: 66 °F

Past Weeks' High & Low Weather Summary

 TemperatureHumidityPressure
High82 °F (Mar 14, 3:53 PM)93% (Mar 23, 5:53 AM)30.27 "Hg (Mar 23, 5:53 AM)
Low47 °F (Mar 12, 6:53 AM)19% (Mar 15, 3:53 PM)29.92 "Hg (Mar 14, 5:53 PM)
Average63 °F61%30.07 "Hg
* Reported Mar 12 6:53 AM — Mar 27 6:53 AM, Concord, Weather by CustomWeather, © 2015

Note: Actual official high and low records may vary slightly from our data, if they occured in-between our weather recording intervals... More about our weather records

Advertising

Concord weather history for previous 24 hours

 ConditionsComfort  
Time TempWeatherWind HumidityBarometerVisibility
6:53 AM
Fri, Mar 27
53 °FClear.3 mph86%30.06 "Hg10 mi
5:53 AM55 °FClear.No wind83%30.05 "Hg10 mi
4:53 AM55 °FClear.No wind87%30.04 "Hg10 mi
3:53 AM55 °FClear.No wind87%30.04 "Hg10 mi
2:53 AM58 °FClear.3 mph81%30.05 "Hg10 mi
1:53 AM58 °FClear.No wind81%30.06 "Hg10 mi
12:53 AM60 °FClear.No wind75%30.06 "Hg10 mi
11:53 PM
Thu, Mar 26
63 °FClear.5 mph70%30.05 "Hg10 mi
10:53 PM64 °FClear.No wind68%30.06 "Hg10 mi
9:53 PM66 °FClear.No wind63%30.04 "Hg10 mi
8:53 PM69 °FClear.No wind57%30.03 "Hg10 mi
7:53 PM72 °FSunny.3 mph53%30.01 "Hg10 mi
6:53 PM78 °FSunny.5 mph39%30.01 "Hg10 mi
5:53 PM80 °FSunny.6 mph39%30.01 "Hg10 mi
4:53 PM81 °FSunny.8 mph37%30.02 "Hg10 mi
3:53 PM81 °FSunny.6 mph38%30.03 "Hg10 mi
2:53 PM80 °FSunny.9 mph38%30.05 "Hg10 mi
1:53 PM78 °FSunny.10 mph42%30.08 "Hg10 mi
12:53 PM76 °FSunny.9 mph43%30.11 "Hg10 mi
11:53 AM72 °FSunny.9 mph49%30.12 "Hg10 mi
10:53 AM70 °FSunny.9 mph49%30.14 "Hg10 mi
9:53 AM64 °FSunny.No wind58%30.14 "Hg10 mi
8:53 AM58 °FSunny.No wind70%30.13 "Hg10 mi
Weather by CustomWeather, © 2015

See weather overviewHow to use our weather pages